CZ-3B R/B (46917 NORAD) Tracking and Keplerian Element Data

This shows tracking and keplerian element data for the satellite.

Feedback or suggestion? Click here.




ElementValue
Catalog46917
NameCZ-3B R/B
Epoch Orbit16
Epoch Day319.16027356
Epoch Year2020
RAAN289.0312
Inclination28.417
Eccentricity0.7243285
Argument of Perigee178.0167
Mean Anonmoly188.7357
Mean Motion2.38392585
Decay Rate0.00018793
L11 46917U 20082B 20319.16027356 .00018793 -17187-7 15198-3 0 9991
L22 46917 28.4170 289.0312 7243285 178.0167 188.7357 2.38392585 168

Live tracking and technical data element details for CZ-3B R/B (NORAD 46917). CZ-3B R/B can be tracked NOW for your location showing map with azimuth and elevation plus other details from your city location.

Track the satellite on the map from your city or location and see movement details for azimuth, elevation, latitude, longitude, range, height, and movement on the map or in text.







IsCatalogInMostPopularTable: catalog: 46917, numindb: 1
Update: records affected: 1



GetName: 46917 CZ-3B R/B

Hit Count: updated at: Thu, 26 Nov 2020 18:51:15 GMT